This is the latest recevied weather packets stored in our database for station/object IU7LMH-13. If no packets are shown the sender has not sent any weather packets the latest 10 day(s).
| Time | Temp. | Humidity | Pressure | Rain* | Wind** | Luminosity | Snow |
|---|---|---|---|---|---|---|---|
| 1777936179 | 12.78° C | 89% | 1017.6 hPa | 0 mm | - | - | - |
| 1777935700 | 12.78° C | 88% | 1017.7 hPa | 0 mm | - | - | - |
| 1777934497 | 13.33° C | 88% | 1017.9 hPa | 0 mm | - | - | - |
| 1777934257 | 13.33° C | 88% | 1017.9 hPa | 0 mm | - | - | - |
| 1777933778 | 13.33° C | 88% | 1018.1 hPa | 0 mm | - | - | - |
| 1777933297 | 13.33° C | 88% | 1017.9 hPa | 0 mm | - | - | - |
| 1777932817 | 13.33° C | 88% | 1018 hPa | 0 mm | - | - | - |
| 1777931377 | 13.89° C | 88% | 1018 hPa | 0 mm | - | - | - |
| 1777931018 | 13.33° C | 88% | 1018 hPa | 0 mm | - | - | - |
| 1777930298 | 13.89° C | 88% | 1017.9 hPa | 0 mm | - | - | - |
| 1777929696 | 13.89° C | 88% | 1017.9 hPa | 0 mm | - | - | - |
| 1777928978 | 13.89° C | 88% | 1017.9 hPa | 0 mm | - | - | - |
| 1777928018 | 14.44° C | 87% | 1018 hPa | 0 mm | - | - | - |
| 1777927897 | 14.44° C | 87% | 1018.1 hPa | 0 mm | - | - | - |
| 1777926817 | 14.44° C | 87% | 1018 hPa | 0 mm | - | - | - |
| 1777926345 | 14.44° C | 87% | 1017.9 hPa | 0 mm | - | - | - |
| 1777926098 | 14.44° C | 86% | 1018.1 hPa | 0 mm | - | - | - |
| 1777924658 | 15° C | 86% | 1018 hPa | 0 mm | - | - | - |
| 1777923699 | 15° C | 85% | 1017.8 hPa | 0 mm | - | - | - |
| 1777923342 | 15.56° C | 85% | 1017.7 hPa | 0 mm | - | - | - |
| 1777922859 | 15.56° C | 84% | 1017.5 hPa | 0 mm | - | - | - |
| 1777922618 | 15.56° C | 84% | 1017.7 hPa | 0 mm | - | - | - |
| 1777922145 | 15.56° C | 83% | 1017.8 hPa | 0 mm | - | - | - |
| 1777922019 | 15.56° C | 83% | 1017.5 hPa | 0 mm | - | - | - |
| 1777920217 | 16.67° C | 80% | 1017.3 hPa | 0 mm | - | - | - |
* Rain latest hour (hover to see other rain measurements)
** Current wind speed in m/s (hover to see current wind gust speed)